Voltar ao catálogo

AO-27

EYESAT A

AtivoRádio AmadorSSO
NORAD 22825·PAYLOAD·🇺🇸 United States

Lançado Sep 26, 1993 de Guiana Space Centre

Loading…

Próximas Passagens (próximas 24 horas)

TLE

AtualizadoSource: Space-Track

Época: Sep 14, 2026, 10:21 UTC

1 22825U 93061C   26257.43183635  .00000066  00000-0  42092-4 0  9996
2 22825  98.6797 324.7758 0008151 190.9932 169.1074 14.30961131719768

Acompanhe AO-27 em tempo real com AllMySat

Download on the App Store